铱星星座 4星 (IRIDIUM 4)

导读 | 星芒AI

IRIDIUM 4 是 Iridium 卫星通信系统中的一颗低轨卫星,属于 Iridium NEXT 计划的一部分。该卫星由 SpaceX 发射,旨在提供全球范围内的语音和数据通信服务。IRIDIUM 4 运行在约 780 公里的高度,采用先进通信技术,支持航空、航海及偏远地区用户。该系统由 66 颗工作卫星组成,具备高可靠性和抗干扰能力,广泛应用于应急通信、国防及商业领域。IRIDIUM 4 的部署提升了全球通信的覆盖与服务质量。

基本信息
目录编号:
24796
目录名称:
IRIDIUM 4
国际标识:
1997-020E
轨道中心:
EARTH
卫星名称:
铱星星座 4星
卫星全名:
铱星星座 4星 (IRIDIUM 4)
卫星状态:
在轨 (已飞行10449 天)
发射日期:
1997-05-05 UTC
国别 :
美国 (US)
星等 :
--
轨道信息
数据来源 国际轨道数据 AOE轨道数据
星历时间 2025-12-13T04:26:26+0800
13小时前
查看轨道信息
2025-12-07T10:00:00+0800
6天前
查看轨道信息
半长轴 7146.525km 7146.551km
偏心率 0.0001879 0.0001812
轨道倾角 86.395° 86.395°
近地点辐角 93.642° 90.189°
升交点赤经 98.807° 101.229°
平近点角 266.499° 327.860°
近地点 767.047km 767.121km
远地点 769.733km 769.711km
周期 100.208分钟 100.208分钟
每日圈数 14.370122 14.370043
详细信息
平衡模式:
三轴稳定
覆盖范围:
全球
运营商:
铱星通信公司
运营商所在国:
美国
使用方式:
暂无
卫星简介
铱星(Iridium)是由共66个运作中的通信卫星组成的卫星通信系统。这个系统原本规划77个通信卫星,所以用原子序数为77的铱元素来命名。铱卫星允许人们使用手持型电子设备进行全球性的语音及数据通讯。该卫星已退役。
2D轨道图
3D轨道图
轨道高度分析图
轨道倾角分析图
轨道综合分析图
查看轨道综合分析图